This is the latest recevied weather packets stored in our database for station/object DB0DUS-10. If no packets are shown the sender has not sent any weather packets the latest 1 day(s).
| Time | Temp. | Humidity | Pressure | Rain* | Wind** | Luminosity | Snow |
|---|---|---|---|---|---|---|---|
| 1778057580 | 11.11° C | 93% | 1006.7 hPa | 0.76 mm | - | - | - |
| 1778056080 | 11.11° C | 93% | 1006.5 hPa | 0.76 mm | - | - | - |
| 1778054879 | 11.11° C | 94% | 1006.4 hPa | 0.76 mm | - | - | - |
| 1778054580 | 11.11° C | 94% | 1006.3 hPa | 1.02 mm | - | - | - |
| 1778053079 | 11.11° C | 94% | 1006.4 hPa | 0.76 mm | - | - | - |
| 1778051580 | 10.56° C | 94% | 1006.4 hPa | 0.76 mm | - | - | - |
| 1778050080 | 10.56° C | 94% | 1006.3 hPa | 1.02 mm | - | - | - |
| 1778048580 | 10.56° C | 94% | 1006.2 hPa | 1.52 mm | - | - | - |
| 1778047081 | 10.56° C | 95% | 1006.1 hPa | 1.52 mm | - | - | - |
| 1778045879 | 10.56° C | 95% | 1006 hPa | 1.27 mm | - | - | - |
| 1778045580 | 10.56° C | 95% | 1006 hPa | 1.52 mm | - | - | - |
| 1778041081 | 10.56° C | 95% | 1005.9 hPa | 3.3 mm | - | - | - |
| 1778040479 | 10.56° C | 95% | 1005.9 hPa | 3.56 mm | - | - | - |
| 1778038080 | 10.56° C | 95% | 1006 hPa | 2.54 mm | - | - | - |
| 1778035080 | 10.56° C | 94% | 1006.3 hPa | 3.81 mm | - | - | - |
| 1778033580 | 10.56° C | 94% | 1006.4 hPa | 3.56 mm | - | - | - |
| 1778033280 | 10.56° C | 94% | 1006.4 hPa | 3.56 mm | - | - | - |
| 1778031480 | 10.56° C | 94% | 1006.5 hPa | 2.03 mm | - | - | - |
| 1778029680 | 10.56° C | 94% | 1006.6 hPa | 1.78 mm | - | - | - |
| 1778027880 | 11.11° C | 94% | 1006.9 hPa | 1.52 mm | - | - | - |
* Rain latest hour (hover to see other rain measurements)
** Current wind speed in m/s (hover to see current wind gust speed)